Year,Month,Day,Hour,Minute,Value (Times are PST for temperature in C)
2015,07,04,00,00,16.50
2015,07,04,00,01,16.60
2015,07,04,00,02,16.60
2015,07,04,00,03,16.60
2015,07,04,00,04,16.60
2015,07,04,00,05,16.60
2015,07,04,00,06,16.60
2015,07,04,00,07,16.60
2015,07,04,00,08,16.60
2015,07,04,00,09,16.60
2015,07,04,00,10,16.60
2015,07,04,00,11,16.60
2015,07,04,00,12,16.60
2015,07,04,00,13,16.60
2015,07,04,00,14,16.60
2015,07,04,00,15,16.60
2015,07,04,00,16,16.60
2015,07,04,00,17,16.60
2015,07,04,00,18,16.60
2015,07,04,00,19,16.60
2015,07,04,00,20,16.60
2015,07,04,00,21,16.60
2015,07,04,00,22,16.60
2015,07,04,00,23,16.50
2015,07,04,00,24,16.40
2015,07,04,00,25,16.40
2015,07,04,00,26,16.30
2015,07,04,00,27,16.20
2015,07,04,00,28,16.10
2015,07,04,00,29,16.10
2015,07,04,00,30,16.00
2015,07,04,00,31,16.00
2015,07,04,00,32,15.90
2015,07,04,00,33,15.90
2015,07,04,00,34,15.90
2015,07,04,00,35,15.80
2015,07,04,00,36,15.80
2015,07,04,00,37,15.70
2015,07,04,00,38,15.70
2015,07,04,00,39,15.60
2015,07,04,00,40,15.60
2015,07,04,00,41,15.60
2015,07,04,00,42,15.50
2015,07,04,00,43,15.40
2015,07,04,00,44,15.30
2015,07,04,00,45,15.20
2015,07,04,00,46,15.10
2015,07,04,00,47,15.00
2015,07,04,00,48,14.90
2015,07,04,00,49,14.90
2015,07,04,00,50,14.80
2015,07,04,00,51,14.80
2015,07,04,00,52,14.80
2015,07,04,00,53,14.80
2015,07,04,00,54,14.80
2015,07,04,00,55,14.80
2015,07,04,00,56,14.80
2015,07,04,00,57,14.80
2015,07,04,00,58,14.80
2015,07,04,00,59,14.80
2015,07,04,01,00,14.80
2015,07,04,01,01,14.80
2015,07,04,01,02,14.80
2015,07,04,01,03,14.80
2015,07,04,01,04,14.80
2015,07,04,01,05,14.80
2015,07,04,01,06,14.80
2015,07,04,01,07,14.80
2015,07,04,01,08,14.80
2015,07,04,01,09,14.80
2015,07,04,01,10,14.80
2015,07,04,01,11,14.80
2015,07,04,01,12,14.80
2015,07,04,01,13,14.90
2015,07,04,01,14,14.90
2015,07,04,01,15,14.90
2015,07,04,01,16,14.90
2015,07,04,01,17,14.90
2015,07,04,01,18,14.90
2015,07,04,01,19,15.00
2015,07,04,01,20,15.00
2015,07,04,01,21,15.00
2015,07,04,01,22,15.10
2015,07,04,01,23,15.10
2015,07,04,01,24,15.10
2015,07,04,01,25,15.10
2015,07,04,01,26,15.20
2015,07,04,01,27,15.20
2015,07,04,01,28,15.20
2015,07,04,01,29,15.20
2015,07,04,01,30,15.30
2015,07,04,01,31,15.30
2015,07,04,01,32,15.30
2015,07,04,01,33,15.40
2015,07,04,01,34,15.40
2015,07,04,01,35,15.40
2015,07,04,01,36,15.50
2015,07,04,01,37,15.50
2015,07,04,01,38,15.50
2015,07,04,01,39,15.50
2015,07,04,01,40,15.60
2015,07,04,01,41,15.60
2015,07,04,01,42,15.60
2015,07,04,01,43,15.60
2015,07,04,01,44,15.60
2015,07,04,01,45,15.50
2015,07,04,01,46,15.50
2015,07,04,01,47,15.40
2015,07,04,01,48,15.40
2015,07,04,01,49,15.30
2015,07,04,01,50,15.30
2015,07,04,01,51,15.20
2015,07,04,01,52,15.20
2015,07,04,01,53,15.10
2015,07,04,01,54,15.00
2015,07,04,01,55,15.00
2015,07,04,01,56,14.90
2015,07,04,01,57,14.90
2015,07,04,01,58,14.80
2015,07,04,01,59,14.80
2015,07,04,02,00,14.70
2015,07,04,02,01,14.70
2015,07,04,02,02,14.70
2015,07,04,02,03,14.60
2015,07,04,02,04,14.60
2015,07,04,02,05,14.60
2015,07,04,02,06,14.60
2015,07,04,02,07,14.60
2015,07,04,02,08,14.60
2015,07,04,02,09,14.60
2015,07,04,02,10,14.70
2015,07,04,02,11,14.70
2015,07,04,02,12,14.70
2015,07,04,02,13,14.80
2015,07,04,02,14,14.80
2015,07,04,02,15,14.80
2015,07,04,02,16,14.90
2015,07,04,02,17,14.90
2015,07,04,02,18,14.90
2015,07,04,02,19,14.90
2015,07,04,02,20,14.90
2015,07,04,02,21,14.90
2015,07,04,02,22,14.90
2015,07,04,02,23,15.00
2015,07,04,02,24,15.00
2015,07,04,02,25,15.00
2015,07,04,02,26,15.00
2015,07,04,02,27,15.00
2015,07,04,02,28,14.90
2015,07,04,02,29,14.90
2015,07,04,02,30,14.90
2015,07,04,02,31,14.90
2015,07,04,02,32,14.80
2015,07,04,02,33,14.70
2015,07,04,02,34,14.60
2015,07,04,02,35,14.50
2015,07,04,02,36,14.50
2015,07,04,02,37,14.40
2015,07,04,02,38,14.30
2015,07,04,02,39,14.30
2015,07,04,02,40,14.30
2015,07,04,02,41,14.20
2015,07,04,02,42,14.20
2015,07,04,02,43,14.20
2015,07,04,02,44,14.20
2015,07,04,02,45,14.20
2015,07,04,02,46,14.20
2015,07,04,02,47,14.10
2015,07,04,02,48,14.10
2015,07,04,02,49,14.10
2015,07,04,02,50,14.00
2015,07,04,02,51,14.00
2015,07,04,02,52,14.00
2015,07,04,02,53,14.00
2015,07,04,02,54,13.90
2015,07,04,02,55,13.90
2015,07,04,02,56,13.90
2015,07,04,02,57,13.90
2015,07,04,02,58,13.90
2015,07,04,02,59,13.90
2015,07,04,03,00,13.90
2015,07,04,03,01,13.90
2015,07,04,03,02,13.90
2015,07,04,03,03,13.90
2015,07,04,03,04,13.90
2015,07,04,03,05,13.90
2015,07,04,03,06,13.90
2015,07,04,03,07,13.90
2015,07,04,03,08,13.90
2015,07,04,03,09,13.90
2015,07,04,03,10,13.90
2015,07,04,03,11,14.00
2015,07,04,03,12,14.00
2015,07,04,03,13,14.00
2015,07,04,03,14,14.00
2015,07,04,03,15,14.00
2015,07,04,03,16,14.10
2015,07,04,03,17,14.10
2015,07,04,03,18,14.10
2015,07,04,03,19,14.20
2015,07,04,03,20,14.20
2015,07,04,03,21,14.20
2015,07,04,03,22,14.30
2015,07,04,03,23,14.30
2015,07,04,03,24,14.30
2015,07,04,03,25,14.40
2015,07,04,03,26,14.40
2015,07,04,03,27,14.50
2015,07,04,03,28,14.60
2015,07,04,03,29,14.70
2015,07,04,03,30,14.80
2015,07,04,03,31,14.80
2015,07,04,03,32,14.90
2015,07,04,03,33,14.90
2015,07,04,03,34,14.90
2015,07,04,03,35,15.00
2015,07,04,03,36,15.00
2015,07,04,03,37,15.00
2015,07,04,03,38,15.00
2015,07,04,03,39,15.00
2015,07,04,03,40,15.10
2015,07,04,03,41,15.10
2015,07,04,03,42,15.10
2015,07,04,03,43,15.10
2015,07,04,03,44,15.10
2015,07,04,03,45,15.10
2015,07,04,03,46,15.10
2015,07,04,03,47,15.10
2015,07,04,03,48,15.10
2015,07,04,03,49,15.10
2015,07,04,03,50,15.10
2015,07,04,03,51,15.10
2015,07,04,03,52,15.10
2015,07,04,03,53,15.10
2015,07,04,03,54,15.10
2015,07,04,03,55,15.10
2015,07,04,03,56,15.10
2015,07,04,03,57,15.10
2015,07,04,03,58,15.10
2015,07,04,03,59,15.10
2015,07,04,04,00,15.10
2015,07,04,04,01,15.00
2015,07,04,04,02,15.00
2015,07,04,04,03,15.00
2015,07,04,04,04,15.00
2015,07,04,04,05,14.90
2015,07,04,04,06,14.90
2015,07,04,04,07,14.90
2015,07,04,04,08,14.90
2015,07,04,04,09,14.90
2015,07,04,04,10,14.90
2015,07,04,04,11,14.90
2015,07,04,04,12,14.80
2015,07,04,04,13,14.80
2015,07,04,04,14,14.80
2015,07,04,04,15,14.80
2015,07,04,04,16,14.80
2015,07,04,04,17,14.80
2015,07,04,04,18,14.80
2015,07,04,04,19,14.80
2015,07,04,04,20,14.80
2015,07,04,04,21,14.70
2015,07,04,04,22,14.80
2015,07,04,04,23,14.80
2015,07,04,04,24,14.80
2015,07,04,04,25,14.70
2015,07,04,04,26,14.80
2015,07,04,04,27,14.70
2015,07,04,04,28,14.70
2015,07,04,04,29,14.70
2015,07,04,04,30,14.70
2015,07,04,04,31,14.70
2015,07,04,04,32,14.70
2015,07,04,04,33,14.60
2015,07,04,04,34,14.60
2015,07,04,04,35,14.60
2015,07,04,04,36,14.60
2015,07,04,04,37,14.60
2015,07,04,04,38,14.50
2015,07,04,04,39,14.50
2015,07,04,04,40,14.40
2015,07,04,04,41,14.40
2015,07,04,04,42,14.40
2015,07,04,04,43,14.40
2015,07,04,04,44,14.30
2015,07,04,04,45,14.30
2015,07,04,04,46,14.30
2015,07,04,04,47,14.30
2015,07,04,04,48,14.30
2015,07,04,04,49,14.20
2015,07,04,04,50,14.20
2015,07,04,04,51,14.20
2015,07,04,04,52,14.20
2015,07,04,04,53,14.20
2015,07,04,04,54,14.20
2015,07,04,04,55,14.20
2015,07,04,04,56,14.10
2015,07,04,04,57,14.10
2015,07,04,04,58,14.10
2015,07,04,04,59,14.00
2015,07,04,05,00,14.00
2015,07,04,05,01,13.90
2015,07,04,05,02,13.90
2015,07,04,05,03,13.90
2015,07,04,05,04,13.80
2015,07,04,05,05,13.80
2015,07,04,05,06,13.70
2015,07,04,05,07,13.70
2015,07,04,05,08,13.60
2015,07,04,05,09,13.60
2015,07,04,05,10,13.60
2015,07,04,05,11,13.60
2015,07,04,05,12,13.50
2015,07,04,05,13,13.50
2015,07,04,05,14,13.50
2015,07,04,05,15,13.40
2015,07,04,05,16,13.40
2015,07,04,05,17,13.40
2015,07,04,05,18,13.40
2015,07,04,05,19,13.30
2015,07,04,05,20,13.30
2015,07,04,05,21,13.30
2015,07,04,05,22,13.30
2015,07,04,05,23,13.30
2015,07,04,05,24,13.30
2015,07,04,05,25,13.30
2015,07,04,05,26,13.20
2015,07,04,05,27,13.20
2015,07,04,05,28,13.20
2015,07,04,05,29,13.20
2015,07,04,05,30,13.20
2015,07,04,05,31,13.10
2015,07,04,05,32,13.00
2015,07,04,05,33,12.90
2015,07,04,05,34,12.80
2015,07,04,05,35,12.80
2015,07,04,05,36,12.70
2015,07,04,05,37,12.60
2015,07,04,05,38,12.60
2015,07,04,05,39,12.50
2015,07,04,05,40,12.50
2015,07,04,05,41,12.40
2015,07,04,05,42,12.40
2015,07,04,05,43,12.40
2015,07,04,05,44,12.40
2015,07,04,05,45,12.30
2015,07,04,05,46,12.30
2015,07,04,05,47,12.40
2015,07,04,05,48,12.40
2015,07,04,05,49,12.40
2015,07,04,05,50,12.40
2015,07,04,05,51,12.40
2015,07,04,05,52,12.40
2015,07,04,05,53,12.40
2015,07,04,05,54,12.40
2015,07,04,05,55,12.50
2015,07,04,05,56,12.50
2015,07,04,05,57,12.50
2015,07,04,05,58,12.50
2015,07,04,05,59,12.60
2015,07,04,06,00,12.60
2015,07,04,06,01,12.60
2015,07,04,06,02,12.60
2015,07,04,06,03,12.60
2015,07,04,06,04,12.70
2015,07,04,06,05,12.70
2015,07,04,06,06,12.70
2015,07,04,06,07,12.70
2015,07,04,06,08,12.70
2015,07,04,06,09,12.70
2015,07,04,06,10,12.70
2015,07,04,06,11,12.80
2015,07,04,06,12,12.80
2015,07,04,06,13,12.80
2015,07,04,06,14,12.90
2015,07,04,06,15,12.90
2015,07,04,06,16,12.90
2015,07,04,06,17,13.00
2015,07,04,06,18,13.00
2015,07,04,06,19,13.00
2015,07,04,06,20,13.10
2015,07,04,06,21,13.10
2015,07,04,06,22,13.20
2015,07,04,06,23,13.20
2015,07,04,06,24,13.30
2015,07,04,06,25,13.30
2015,07,04,06,26,13.40
2015,07,04,06,27,13.40
2015,07,04,06,28,13.50
2015,07,04,06,29,13.50
2015,07,04,06,30,13.60
2015,07,04,06,31,13.70
2015,07,04,06,32,13.70
2015,07,04,06,33,13.80
2015,07,04,06,34,13.80
2015,07,04,06,35,13.90
2015,07,04,06,36,14.00
2015,07,04,06,37,14.00
2015,07,04,06,38,14.10
2015,07,04,06,39,14.20
2015,07,04,06,40,14.20
2015,07,04,06,41,14.30
2015,07,04,06,42,14.30
2015,07,04,06,43,14.40
2015,07,04,06,44,14.50
2015,07,04,06,45,14.50
2015,07,04,06,46,14.60
2015,07,04,06,47,14.60
2015,07,04,06,48,14.70
2015,07,04,06,49,14.80
2015,07,04,06,50,14.90
2015,07,04,06,51,15.00
2015,07,04,06,52,15.10
2015,07,04,06,53,15.20
2015,07,04,06,54,15.30
2015,07,04,06,55,15.40
2015,07,04,06,56,15.60
2015,07,04,06,57,15.80
2015,07,04,06,58,16.00
2015,07,04,06,59,16.10
2015,07,04,07,00,16.30
2015,07,04,07,01,16.40
2015,07,04,07,02,16.60
2015,07,04,07,03,16.80
2015,07,04,07,04,16.90
2015,07,04,07,05,17.10
2015,07,04,07,06,17.20
2015,07,04,07,07,17.30
2015,07,04,07,08,17.40
2015,07,04,07,09,17.50
2015,07,04,07,10,17.50
2015,07,04,07,11,17.60
2015,07,04,07,12,17.70
2015,07,04,07,13,17.80
2015,07,04,07,14,17.90
2015,07,04,07,15,18.10
2015,07,04,07,16,18.20
2015,07,04,07,17,18.30
2015,07,04,07,18,18.40
2015,07,04,07,19,18.40
2015,07,04,07,20,18.50
2015,07,04,07,21,18.60
2015,07,04,07,22,18.70
2015,07,04,07,23,18.90
2015,07,04,07,24,19.00
2015,07,04,07,25,19.00
2015,07,04,07,26,19.20
2015,07,04,07,27,19.30
2015,07,04,07,28,19.30
2015,07,04,07,29,19.30
2015,07,04,07,30,19.30
2015,07,04,07,31,19.30
2015,07,04,07,32,19.30
2015,07,04,07,33,19.30
2015,07,04,07,34,19.40
2015,07,04,07,35,19.50
2015,07,04,07,36,19.60
2015,07,04,07,37,19.70
2015,07,04,07,38,19.80
2015,07,04,07,39,19.90
2015,07,04,07,40,19.90
2015,07,04,07,41,19.90
2015,07,04,07,42,20.00
2015,07,04,07,43,20.10
2015,07,04,07,44,20.20
2015,07,04,07,45,20.30
2015,07,04,07,46,20.40
2015,07,04,07,47,20.50
2015,07,04,07,48,20.60
2015,07,04,07,49,20.70
2015,07,04,07,50,20.80
2015,07,04,07,51,20.90
2015,07,04,07,52,21.00
2015,07,04,07,53,21.10
2015,07,04,07,54,21.10
2015,07,04,07,55,21.20
2015,07,04,07,56,21.30
2015,07,04,07,57,21.40
2015,07,04,07,58,21.50
2015,07,04,07,59,21.60
2015,07,04,08,00,21.70
2015,07,04,08,01,21.70
2015,07,04,08,02,21.60
2015,07,04,08,03,21.40
2015,07,04,08,04,21.30
2015,07,04,08,05,21.10
2015,07,04,08,06,20.80
2015,07,04,08,07,20.40
2015,07,04,08,08,20.20
2015,07,04,08,09,20.00
2015,07,04,08,10,19.70
2015,07,04,08,11,19.50
2015,07,04,08,12,19.20
2015,07,04,08,13,19.00
2015,07,04,08,14,18.80
2015,07,04,08,15,18.60
2015,07,04,08,16,18.40
2015,07,04,08,17,18.40
2015,07,04,08,18,18.30
2015,07,04,08,19,18.30
2015,07,04,08,20,18.30
2015,07,04,08,21,18.40
2015,07,04,08,22,18.50
2015,07,04,08,23,18.60
2015,07,04,08,24,18.70
2015,07,04,08,25,18.80
2015,07,04,08,26,19.00
2015,07,04,08,27,19.10
2015,07,04,08,28,19.20
2015,07,04,08,29,19.40
2015,07,04,08,30,19.50
2015,07,04,08,31,19.70
2015,07,04,08,32,19.90
2015,07,04,08,33,20.10
2015,07,04,08,34,20.20
2015,07,04,08,35,20.30
2015,07,04,08,36,20.40
2015,07,04,08,37,20.50
2015,07,04,08,38,20.60
2015,07,04,08,39,20.60
2015,07,04,08,40,20.60
2015,07,04,08,41,20.70
2015,07,04,08,42,20.60
2015,07,04,08,43,20.60
2015,07,04,08,44,20.60
2015,07,04,08,45,20.70
2015,07,04,08,46,20.70
2015,07,04,08,47,20.80
2015,07,04,08,48,21.00
2015,07,04,08,49,21.10
2015,07,04,08,50,21.10
2015,07,04,08,51,21.20
2015,07,04,08,52,21.20
2015,07,04,08,53,21.30
2015,07,04,08,54,21.40
2015,07,04,08,55,21.50
2015,07,04,08,56,21.60
2015,07,04,08,57,21.70
2015,07,04,08,58,21.80
2015,07,04,08,59,21.90
2015,07,04,09,00,21.90
2015,07,04,09,01,21.90
2015,07,04,09,02,21.90
2015,07,04,09,03,21.90
2015,07,04,09,04,21.90
2015,07,04,09,05,21.90
2015,07,04,09,06,21.90
2015,07,04,09,07,21.90
2015,07,04,09,08,21.90
2015,07,04,09,09,21.90
2015,07,04,09,10,21.90
2015,07,04,09,11,21.90
2015,07,04,09,12,21.90
2015,07,04,09,13,21.90
2015,07,04,09,14,21.90
2015,07,04,09,15,21.90
2015,07,04,09,16,21.90
2015,07,04,09,17,21.90
2015,07,04,09,18,22.00
2015,07,04,09,19,22.10
2015,07,04,09,20,22.10
2015,07,04,09,21,22.20
2015,07,04,09,22,22.30
2015,07,04,09,23,22.30
2015,07,04,09,24,22.40
2015,07,04,09,25,22.40
2015,07,04,09,26,22.50
2015,07,04,09,27,22.50
2015,07,04,09,28,22.60
2015,07,04,09,29,22.60
2015,07,04,09,30,22.70
2015,07,04,09,31,22.70
2015,07,04,09,32,22.80
2015,07,04,09,33,22.80
2015,07,04,09,34,22.70
2015,07,04,09,35,22.60
2015,07,04,09,36,22.60
2015,07,04,09,37,22.60
2015,07,04,09,38,22.60
2015,07,04,09,39,22.60
2015,07,04,09,40,22.50
2015,07,04,09,41,22.40
2015,07,04,09,42,22.50
2015,07,04,09,43,22.60
2015,07,04,09,44,22.60
2015,07,04,09,45,22.70
2015,07,04,09,46,22.70
2015,07,04,09,47,22.70
2015,07,04,09,48,22.60
2015,07,04,09,49,22.60
2015,07,04,09,50,22.60
2015,07,04,09,51,22.70
2015,07,04,09,52,22.50
2015,07,04,09,53,22.40
2015,07,04,09,54,22.20
2015,07,04,09,55,22.00
2015,07,04,09,56,21.90
2015,07,04,09,57,21.90
2015,07,04,09,58,21.90
2015,07,04,09,59,22.00
2015,07,04,10,00,22.10
2015,07,04,10,01,22.30
2015,07,04,10,02,22.30
2015,07,04,10,03,22.20
2015,07,04,10,04,22.00
2015,07,04,10,05,21.90
2015,07,04,10,06,21.90
2015,07,04,10,07,21.90
2015,07,04,10,08,21.90
2015,07,04,10,09,21.90
2015,07,04,10,10,21.80
2015,07,04,10,11,21.90
2015,07,04,10,12,21.90
2015,07,04,10,13,22.00
2015,07,04,10,14,22.00
2015,07,04,10,15,21.90
2015,07,04,10,16,21.80
2015,07,04,10,17,21.70
2015,07,04,10,18,21.70
2015,07,04,10,19,21.70
2015,07,04,10,20,21.70
2015,07,04,10,21,21.80
2015,07,04,10,22,21.80
2015,07,04,10,23,21.90
2015,07,04,10,24,22.00
2015,07,04,10,25,22.10
2015,07,04,10,26,22.10
2015,07,04,10,27,22.10
2015,07,04,10,28,22.10
2015,07,04,10,29,22.20
2015,07,04,10,30,22.40
2015,07,04,10,31,22.50
2015,07,04,10,32,22.60
2015,07,04,10,33,22.60
2015,07,04,10,34,22.70
2015,07,04,10,35,22.80
2015,07,04,10,36,22.80
2015,07,04,10,37,22.90
2015,07,04,10,38,23.00
2015,07,04,10,39,23.20
2015,07,04,10,40,23.30
2015,07,04,10,41,23.40
2015,07,04,10,42,23.60
2015,07,04,10,43,23.80
2015,07,04,10,44,23.90
2015,07,04,10,45,23.90
2015,07,04,10,46,23.80
2015,07,04,10,47,23.80
2015,07,04,10,48,23.80
2015,07,04,10,49,23.80
2015,07,04,10,50,23.80
2015,07,04,10,51,23.70
2015,07,04,10,52,23.50
2015,07,04,10,53,23.40
2015,07,04,10,54,23.40
2015,07,04,10,55,23.40
2015,07,04,10,56,23.40
2015,07,04,10,57,23.30
2015,07,04,10,58,23.30
2015,07,04,10,59,23.30
2015,07,04,11,00,23.30
2015,07,04,11,01,23.20
2015,07,04,11,02,23.30
2015,07,04,11,03,23.40
2015,07,04,11,04,23.50
2015,07,04,11,05,23.50
2015,07,04,11,06,23.40
2015,07,04,11,07,23.30
2015,07,04,11,08,23.30
2015,07,04,11,09,23.30
2015,07,04,11,10,23.30
2015,07,04,11,11,23.20
2015,07,04,11,12,23.20
2015,07,04,11,13,23.20
2015,07,04,11,14,23.30
2015,07,04,11,15,23.40
2015,07,04,11,16,23.50
2015,07,04,11,17,23.50
2015,07,04,11,18,23.50
2015,07,04,11,19,23.60
2015,07,04,11,20,23.60
2015,07,04,11,21,23.70
2015,07,04,11,22,23.70
2015,07,04,11,23,23.60
2015,07,04,11,24,23.60
2015,07,04,11,25,23.60
2015,07,04,11,26,23.60
2015,07,04,11,27,23.60
2015,07,04,11,28,23.70
2015,07,04,11,29,23.70
2015,07,04,11,30,23.60
2015,07,04,11,31,23.70
2015,07,04,11,32,23.80
2015,07,04,11,33,23.90
2015,07,04,11,34,24.00
2015,07,04,11,35,24.00
2015,07,04,11,36,24.10
2015,07,04,11,37,24.20
2015,07,04,11,38,24.30
2015,07,04,11,39,24.40
2015,07,04,11,40,24.30
2015,07,04,11,41,24.30
2015,07,04,11,42,24.40
2015,07,04,11,43,24.40
2015,07,04,11,44,24.40
2015,07,04,11,45,24.50
2015,07,04,11,46,24.40
2015,07,04,11,47,24.50
2015,07,04,11,48,24.50
2015,07,04,11,49,24.60
2015,07,04,11,50,24.60
2015,07,04,11,51,24.70
2015,07,04,11,52,24.80
2015,07,04,11,53,24.80
2015,07,04,11,54,24.90
2015,07,04,11,55,24.90
2015,07,04,11,56,25.00
2015,07,04,11,57,25.00
2015,07,04,11,58,24.90
2015,07,04,11,59,24.70
2015,07,04,12,00,24.60
2015,07,04,12,01,24.60
2015,07,04,12,02,24.70
2015,07,04,12,03,24.60
2015,07,04,12,04,24.60
2015,07,04,12,05,24.60
2015,07,04,12,06,24.60
2015,07,04,12,07,24.60
2015,07,04,12,08,24.60
2015,07,04,12,09,24.60
2015,07,04,12,10,24.70
2015,07,04,12,11,24.80
2015,07,04,12,12,24.80
2015,07,04,12,13,24.90
2015,07,04,12,14,25.10
2015,07,04,12,15,25.20
2015,07,04,12,16,25.30
2015,07,04,12,17,25.30
2015,07,04,12,18,25.30
2015,07,04,12,19,25.40
2015,07,04,12,20,25.40
2015,07,04,12,21,25.50
2015,07,04,12,22,25.60
2015,07,04,12,23,25.50
2015,07,04,12,24,25.40
2015,07,04,12,25,25.20
2015,07,04,12,26,25.20
2015,07,04,12,27,25.20
2015,07,04,12,28,25.10
2015,07,04,12,29,25.10
2015,07,04,12,30,25.10
2015,07,04,12,31,25.20
2015,07,04,12,32,25.20
2015,07,04,12,33,25.30
2015,07,04,12,34,25.30
2015,07,04,12,35,25.40
2015,07,04,12,36,25.50
2015,07,04,12,37,25.50
2015,07,04,12,38,25.50
2015,07,04,12,39,25.40
2015,07,04,12,40,25.40
2015,07,04,12,41,25.40
2015,07,04,12,42,25.30
2015,07,04,12,43,25.20
2015,07,04,12,44,25.10
2015,07,04,12,45,25.10
2015,07,04,12,46,25.10
2015,07,04,12,47,25.20
2015,07,04,12,48,25.10
2015,07,04,12,49,25.10
2015,07,04,12,50,25.20
2015,07,04,12,51,25.20
2015,07,04,12,52,25.40
2015,07,04,12,53,25.40
2015,07,04,12,54,25.60
2015,07,04,12,55,25.60
2015,07,04,12,56,25.60
2015,07,04,12,57,25.60
2015,07,04,12,58,25.60
2015,07,04,12,59,25.60
2015,07,04,13,00,25.50
2015,07,04,13,01,25.40
2015,07,04,13,02,25.40
2015,07,04,13,03,25.30
2015,07,04,13,04,25.30
2015,07,04,13,05,25.40
2015,07,04,13,06,25.50
2015,07,04,13,07,25.60
2015,07,04,13,08,25.60
2015,07,04,13,09,25.60
2015,07,04,13,10,25.70
2015,07,04,13,11,25.80
2015,07,04,13,12,25.80
2015,07,04,13,13,25.80
2015,07,04,13,14,25.80
2015,07,04,13,15,25.80
2015,07,04,13,16,25.80
2015,07,04,13,17,25.80
2015,07,04,13,18,25.80
2015,07,04,13,19,25.80
2015,07,04,13,20,25.70
2015,07,04,13,21,25.50
2015,07,04,13,22,25.30
2015,07,04,13,23,25.20
2015,07,04,13,24,25.10
2015,07,04,13,25,25.00
2015,07,04,13,26,24.90
2015,07,04,13,27,24.90
2015,07,04,13,28,25.00
2015,07,04,13,29,25.10
2015,07,04,13,30,25.20
2015,07,04,13,31,25.20
2015,07,04,13,32,25.20
2015,07,04,13,33,25.20
2015,07,04,13,34,25.20
2015,07,04,13,35,25.20
2015,07,04,13,36,25.30
2015,07,04,13,37,25.50
2015,07,04,13,38,25.70
2015,07,04,13,39,25.80
2015,07,04,13,40,25.80
2015,07,04,13,41,25.80
2015,07,04,13,42,25.80
2015,07,04,13,43,25.90
2015,07,04,13,44,25.90
2015,07,04,13,45,25.90
2015,07,04,13,46,25.80
2015,07,04,13,47,25.80
2015,07,04,13,48,25.70
2015,07,04,13,49,25.60
2015,07,04,13,50,25.50
2015,07,04,13,51,25.40
2015,07,04,13,52,25.40
2015,07,04,13,53,25.50
2015,07,04,13,54,25.50
2015,07,04,13,55,25.60
2015,07,04,13,56,25.70
2015,07,04,13,57,25.80
2015,07,04,13,58,26.00
2015,07,04,13,59,26.10
2015,07,04,14,00,26.20
2015,07,04,14,01,26.30
2015,07,04,14,02,26.30
2015,07,04,14,03,26.40
2015,07,04,14,04,26.50
2015,07,04,14,05,26.60
2015,07,04,14,06,26.70
2015,07,04,14,07,26.80
2015,07,04,14,08,26.80
2015,07,04,14,09,26.90
2015,07,04,14,10,26.80
2015,07,04,14,11,26.80
2015,07,04,14,12,26.60
2015,07,04,14,13,26.40
2015,07,04,14,14,26.10
2015,07,04,14,15,25.90
2015,07,04,14,16,25.80
2015,07,04,14,17,25.70
2015,07,04,14,18,25.60
2015,07,04,14,19,25.60
2015,07,04,14,20,25.50
2015,07,04,14,21,25.40
2015,07,04,14,22,25.40
2015,07,04,14,23,25.40
2015,07,04,14,24,25.40
2015,07,04,14,25,25.50
2015,07,04,14,26,25.40
2015,07,04,14,27,25.40
2015,07,04,14,28,25.40
2015,07,04,14,29,25.50
2015,07,04,14,30,25.60
2015,07,04,14,31,25.80
2015,07,04,14,32,25.90
2015,07,04,14,33,26.10
2015,07,04,14,34,26.20
2015,07,04,14,35,26.20
2015,07,04,14,36,26.30
2015,07,04,14,37,26.40
2015,07,04,14,38,26.60
2015,07,04,14,39,26.70
2015,07,04,14,40,26.80
2015,07,04,14,41,26.90
2015,07,04,14,42,27.00
2015,07,04,14,43,27.00
2015,07,04,14,44,27.10
2015,07,04,14,45,27.10
2015,07,04,14,46,27.20
2015,07,04,14,47,27.20
2015,07,04,14,48,27.30
2015,07,04,14,49,27.40
2015,07,04,14,50,27.50
2015,07,04,14,51,27.50
2015,07,04,14,52,27.50
2015,07,04,14,53,27.40
2015,07,04,14,54,27.20
2015,07,04,14,55,27.20
2015,07,04,14,56,27.20
2015,07,04,14,57,27.20
2015,07,04,14,58,27.30
2015,07,04,14,59,27.20
2015,07,04,15,00,27.20
2015,07,04,15,01,27.10
2015,07,04,15,02,27.10
2015,07,04,15,03,27.10
2015,07,04,15,04,27.20
2015,07,04,15,05,27.20
2015,07,04,15,06,27.00
2015,07,04,15,07,26.90
2015,07,04,15,08,26.90
2015,07,04,15,09,26.80
2015,07,04,15,10,26.70
2015,07,04,15,11,26.60
2015,07,04,15,12,26.60
2015,07,04,15,13,26.70
2015,07,04,15,14,26.70
2015,07,04,15,15,26.70
2015,07,04,15,16,26.80
2015,07,04,15,17,26.80
2015,07,04,15,18,26.80
2015,07,04,15,19,26.90
2015,07,04,15,20,26.90
2015,07,04,15,21,26.90
2015,07,04,15,22,26.90
2015,07,04,15,23,26.90
2015,07,04,15,24,26.80
2015,07,04,15,25,26.90
2015,07,04,15,26,26.90
2015,07,04,15,27,27.00
2015,07,04,15,28,27.10
2015,07,04,15,29,27.30
2015,07,04,15,30,27.40
2015,07,04,15,31,27.60
2015,07,04,15,32,27.90
2015,07,04,15,33,28.10
2015,07,04,15,34,28.20
2015,07,04,15,35,28.30
2015,07,04,15,36,28.50
2015,07,04,15,37,28.50
2015,07,04,15,38,28.60
2015,07,04,15,39,28.50
2015,07,04,15,40,28.40
2015,07,04,15,41,28.40
2015,07,04,15,42,28.50
2015,07,04,15,43,28.60
2015,07,04,15,44,28.70
2015,07,04,15,45,28.70
2015,07,04,15,46,28.80
2015,07,04,15,47,28.80
2015,07,04,15,48,28.90
2015,07,04,15,49,28.80
2015,07,04,15,50,28.80
2015,07,04,15,51,28.70
2015,07,04,15,52,28.70
2015,07,04,15,53,28.70
2015,07,04,15,54,28.70
2015,07,04,15,55,28.70
2015,07,04,15,56,28.70
2015,07,04,15,57,28.60
2015,07,04,15,58,28.50
2015,07,04,15,59,28.40
2015,07,04,16,00,28.30
2015,07,04,16,01,28.30
2015,07,04,16,02,28.20
2015,07,04,16,03,28.20
2015,07,04,16,04,28.10
2015,07,04,16,05,28.10
2015,07,04,16,06,28.10
2015,07,04,16,07,28.10
2015,07,04,16,08,28.10
2015,07,04,16,09,28.10
2015,07,04,16,10,28.10
2015,07,04,16,11,28.10
2015,07,04,16,12,28.10
2015,07,04,16,13,28.10
2015,07,04,16,14,28.10
2015,07,04,16,15,28.10
2015,07,04,16,16,28.10
2015,07,04,16,17,28.20
2015,07,04,16,18,28.20
2015,07,04,16,19,28.30
2015,07,04,16,20,28.30
2015,07,04,16,21,28.30
2015,07,04,16,22,28.20
2015,07,04,16,23,28.10
2015,07,04,16,24,28.10
2015,07,04,16,25,28.10
2015,07,04,16,26,28.10
2015,07,04,16,27,28.10
2015,07,04,16,28,28.10
2015,07,04,16,29,28.10
2015,07,04,16,30,28.10
2015,07,04,16,31,28.20
2015,07,04,16,32,28.30
2015,07,04,16,33,28.30
2015,07,04,16,34,28.40
2015,07,04,16,35,28.40
2015,07,04,16,36,28.40
2015,07,04,16,37,28.50
2015,07,04,16,38,28.50
2015,07,04,16,39,28.60
2015,07,04,16,40,28.50
2015,07,04,16,41,28.60
2015,07,04,16,42,28.60
2015,07,04,16,43,28.60
2015,07,04,16,44,28.70
2015,07,04,16,45,28.70
2015,07,04,16,46,28.80
2015,07,04,16,47,28.80
2015,07,04,16,48,28.80
2015,07,04,16,49,28.80
2015,07,04,16,50,28.80
2015,07,04,16,51,28.90
2015,07,04,16,52,28.90
2015,07,04,16,53,28.90
2015,07,04,16,54,28.90
2015,07,04,16,55,28.90
2015,07,04,16,56,28.80
2015,07,04,16,57,28.80
2015,07,04,16,58,28.80
2015,07,04,16,59,28.80
2015,07,04,17,00,28.80
2015,07,04,17,01,28.80
2015,07,04,17,02,28.90
2015,07,04,17,03,28.80
2015,07,04,17,04,28.80
2015,07,04,17,05,28.80
2015,07,04,17,06,28.70
2015,07,04,17,07,28.60
2015,07,04,17,08,28.50
2015,07,04,17,09,28.40
2015,07,04,17,10,28.30
2015,07,04,17,11,28.30
2015,07,04,17,12,28.20
2015,07,04,17,13,28.20
2015,07,04,17,14,28.20
2015,07,04,17,15,28.20
2015,07,04,17,16,28.20
2015,07,04,17,17,28.30
2015,07,04,17,18,28.40
2015,07,04,17,19,28.40